Location: Rounton
(54.4000°N, 1.3500°W)
Time: 08:44:57
(UTC+00:00)

Vanguard 1 Rocket - Pass Details

Date: 02 December 2021
Orbit: 651 x 4224 km, 34.3° (Epoch: 19 January)

Event Time Altitude Azimuth Distance (km) Brightness Sun altitude
Rises 06:02:22 0° 254° (WSW) 5,853 - -16.7°
Exits shadow 06:04:57 - 249° (WSW) 5,417 10.9 -16.3°
Reaches altitude 10° 06:05:57 10° 247° (WSW) 5,265 10.8 -16.2°
Maximum altitude 06:21:03 39° 186° (S) 4,653 11.0 -14.1°
Drops below altitude 10° 06:42:51 10° 129° (SE) 7,427 13.4 -11.1°
Sets 06:49:18 0° 123° (ESE) 8,404 14.3 -10.2°
